When you browse on this site, cookies collect data to enhance your experience and personalize the content and advertising you see.
Visit our Privacy Policy to learn more. By continuing to use the site, you agree to this use of cookies and data.
  • In Portugal
  • List of Countries
  • For 7 days
  • Water Temperature
  • Satellite Maps
  • Weather Map
  • Weather Widgets
  • user-avatar
    Login

    Hourly Weather Ropotamo

    Today, 16 December, Sunday

    Time Temperature Precipitation Wind Pressure Humidity
    00:00 +11°C° 0.3 mm 3 mps 759 mmHg 92%
    01:00 +11°C° 0.3 mm 3 mps 759 mmHg 91%
    02:00 +11°C° 0 mm 3 mps 759 mmHg 90%
    03:00 +11°C° 0.3 mm 3 mps 758 mmHg 90%
    04:00 +11°C° 0.3 mm 3 mps 758 mmHg 90%
    05:00 +12°C° 0.3 mm 2 mps 758 mmHg 90%
    06:00 +12°C° 0.4 mm 2 mps 758 mmHg 90%
    07:00 +12°C° 0.4 mm 2 mps 758 mmHg 90%
    08:00 +12°C° 0 mm 2 mps 758 mmHg 89%
    09:00 +11°C° 0.1 mm 3 mps 758 mmHg 85%
    10:00 +12°C° 0.1 mm 3 mps 758 mmHg 82%
    11:00 +13°C° 0.1 mm 3 mps 758 mmHg 79%
    12:00 +13°C° 0 mm 4 mps 757 mmHg 77%
    13:00 +14°C° 0 mm 4 mps 757 mmHg 74%
    14:00 +14°C° 0 mm 4 mps 757 mmHg 72%
    15:00 +13°C° 0 mm 4 mps 757 mmHg 78%
    16:00 +12°C° 0 mm 4 mps 757 mmHg 84%
    17:00 +11°C° 0 mm 4 mps 757 mmHg 90%
    18:00 +11°C° 0 mm 3 mps 757 mmHg 91%
    19:00 +11°C° 0 mm 3 mps 757 mmHg 92%
    20:00 +11°C° 0 mm 3 mps 757 mmHg 93%
    21:00 +10°C° 0 mm 3 mps 758 mmHg 93%
    22:00 +10°C° 0 mm 3 mps 758 mmHg 94%
    23:00 +10°C° 0 mm 3 mps 758 mmHg 95%

    Tomorrow, 17 December, Monday

    Time Temperature Precipitation Wind Pressure Humidity
    00:00 +10°C° 0.1 mm 3 mps 758 mmHg 95%
    01:00 +10°C° 0.1 mm 3 mps 758 mmHg 95%
    02:00 +10°C° 0.1 mm 3 mps 758 mmHg 95%
    03:00 +10°C° 0.2 mm 3 mps 758 mmHg 95%
    04:00 +9°C° 0.2 mm 3 mps 758 mmHg 94%
    05:00 +8°C° 0.2 mm 4 mps 758 mmHg 94%
    06:00 +9°C° 0.3 mm 3 mps 758 mmHg 94%
    07:00 +9°C° 0.3 mm 3 mps 758 mmHg 94%
    08:00 +9°C° 0.3 mm 3 mps 758 mmHg 94%
    09:00 +9°C° 0.1 mm 3 mps 758 mmHg 93%
    10:00 +9°C° 0.1 mm 3 mps 759 mmHg 92%
    11:00 +9°C° 0.1 mm 3 mps 759 mmHg 91%
    12:00 +9°C° 0.2 mm 3 mps 758 mmHg 91%
    13:00 +9°C° 0.2 mm 3 mps 758 mmHg 91%
    14:00 +9°C° 0.2 mm 3 mps 758 mmHg 91%
    15:00 +9°C° 0.2 mm 3 mps 758 mmHg 92%
    16:00 +9°C° 0.2 mm 3 mps 758 mmHg 93%
    17:00 +8°C° 0.2 mm 4 mps 758 mmHg 94%
    18:00 +8°C° 0.2 mm 4 mps 758 mmHg 94%
    19:00 +8°C° 0.2 mm 4 mps 758 mmHg 94%
    20:00 +8°C° 0.2 mm 4 mps 758 mmHg 95%
    21:00 +8°C° 0.4 mm 4 mps 759 mmHg 95%
    22:00 +8°C° 0.4 mm 5 mps 759 mmHg 96%
    23:00 +8°C° 0.4 mm 5 mps 759 mmHg 96%

    Day after tomorrow, 18 December, Tuesday

    Time Temperature Precipitation Wind Pressure Humidity
    00:00 +8°C° 0.4 mm 5 mps 759 mmHg 96%
    01:00 +8°C° 0.4 mm 6 mps 759 mmHg 96%
    02:00 +8°C° 0.4 mm 6 mps 759 mmHg 96%
    03:00 +8°C° 0.9 mm 6 mps 759 mmHg 96%
    04:00 +8°C° 0.9 mm 7 mps 759 mmHg 96%
    05:00 +8°C° 0.9 mm 7 mps 759 mmHg 95%
    06:00 +8°C° 1.1 mm 7 mps 759 mmHg 95%
    07:00 +7°C° 1.1 mm 8 mps 759 mmHg 94%
    08:00 +7°C° 1.1 mm 8 mps 760 mmHg 94%
    09:00 +7°C° 0.6 mm 9 mps 760 mmHg 93%
    10:00 +6°C° 0.6 mm 9 mps 760 mmHg 92%
    11:00 +6°C° 0.6 mm 9 mps 761 mmHg 92%
    12:00 +6°C° 0.4 mm 9 mps 761 mmHg 91%
    13:00 +5°C° 0.4 mm 10 mps 761 mmHg 90%
    14:00 +5°C° 0.4 mm 10 mps 761 mmHg 90%
    15:00 +3°C° 0.3 mm 10 mps 761 mmHg 89%
    16:00 +3°C° 0.3 mm 10 mps 761 mmHg 89%
    17:00 +2°C° 0.3 mm 11 mps 761 mmHg 89%
    18:00 +2°C° 0.4 mm 10 mps 762 mmHg 89%
    19:00 +1°C° 0.4 mm 10 mps 762 mmHg 88%
    20:00 +1°C° 0.4 mm 10 mps 763 mmHg 88%
    21:00 0°C° 0.2 mm 10 mps 763 mmHg 87%
    22:00 0°C° 0.2 mm 10 mps 763 mmHg 87%
    23:00 -2°C° 0.2 mm 10 mps 764 mmHg 86%

    19 December, Wednesday

    Time Temperature Precipitation Wind Pressure Humidity
    00:00 -2°C° 0.1 mm 10 mps 764 mmHg 86%
    01:00 -3°C° 0.1 mm 10 mps 764 mmHg 85%
    02:00 -3°C° 0.1 mm 10 mps 764 mmHg 85%
    03:00 -3°C° 0 mm 9 mps 764 mmHg 84%
    04:00 -3°C° 0 mm 9 mps 764 mmHg 82%
    05:00 -4°C° 0 mm 8 mps 764 mmHg 81%
    06:00 -4°C° 0 mm 8 mps 765 mmHg 80%
    07:00 -4°C° 0 mm 8 mps 765 mmHg 80%
    08:00 -4°C° 0 mm 8 mps 765 mmHg 79%
    09:00 -2°C° 0 mm 8 mps 766 mmHg 77%
    10:00 -1°C° 0 mm 7 mps 766 mmHg 74%
    11:00 0°C° 0 mm 7 mps 766 mmHg 72%
    12:00 0°C° 0 mm 7 mps 766 mmHg 72%
    13:00 +2°C° 0 mm 7 mps 765 mmHg 73%
    14:00 +2°C° 0 mm 6 mps 765 mmHg 73%
    15:00 +1°C° 0 mm 6 mps 766 mmHg 77%
    16:00 +1°C° 0 mm 5 mps 766 mmHg 81%
    17:00 0°C° 0 mm 4 mps 766 mmHg 85%
    18:00 0°C° 0 mm 4 mps 766 mmHg 86%
    19:00 -1°C° 0 mm 4 mps 766 mmHg 87%
    20:00 -1°C° 0 mm 4 mps 767 mmHg 88%
    21:00 -1°C° 0 mm 4 mps 767 mmHg 88%
    22:00 -1°C° 0 mm 4 mps 767 mmHg 88%
    23:00 -1°C° 0 mm 4 mps 767 mmHg 88%

    20 December, Thursday

    Time Temperature Precipitation Wind Pressure Humidity
    00:00 -2°C° 0 mm 4 mps 767 mmHg 88%
    01:00 -1°C° 0 mm 3 mps 767 mmHg 88%
    02:00 -1°C° 0 mm 3 mps 767 mmHg 87%
    03:00 -1°C° 0 mm 3 mps 767 mmHg 87%
    04:00 -1°C° 0 mm 3 mps 767 mmHg 86%
    05:00 -1°C° 0 mm 2 mps 767 mmHg 86%
    06:00 -1°C° 0 mm 2 mps 768 mmHg 85%
    07:00 -1°C° 0 mm 2 mps 768 mmHg 85%
    08:00 -1°C° 0 mm 2 mps 768 mmHg 84%
    09:00 +2°C° 0 mm 2 mps 768 mmHg 78%
    10:00 +3°C° 0 mm 2 mps 769 mmHg 73%
    11:00 +5°C° 0 mm 1 mps 769 mmHg 67%
    12:00 +6°C° 0 mm 1 mps 768 mmHg 66%
    13:00 +6°C° 0 mm 1 mps 768 mmHg 65%
    14:00 +6°C° 0 mm 1 mps 767 mmHg 65%
    15:00 +5°C° 0 mm 1 mps 767 mmHg 71%
    16:00 +4°C° 0 mm 1 mps 767 mmHg 76%
    17:00 +2°C° 0 mm 2 mps 767 mmHg 82%
    18:00 +2°C° 0 mm 2 mps 768 mmHg 84%
    19:00 +2°C° 0 mm 2 mps 768 mmHg 86%
    20:00 +1°C° 0 mm 2 mps 768 mmHg 88%
    21:00 +2°C° 0 mm 1 mps 768 mmHg 89%
    22:00 +2°C° 0 mm 1 mps 768 mmHg 90%
    23:00 +2°C° 0 mm 1 mps 767 mmHg 91%

    21 December, Friday

    Time Temperature Precipitation Wind Pressure Humidity
    00:00 +2°C° 0 mm 1 mps 767 mmHg 90%
    01:00 +2°C° 0 mm 1 mps 767 mmHg 90%
    02:00 +2°C° 0 mm 1 mps 767 mmHg 90%
    03:00 +3°C° 0 mm 1 mps 766 mmHg 89%
    04:00 +3°C° 0 mm 1 mps 766 mmHg 88%
    05:00 +3°C° 0 mm 1 mps 766 mmHg 88%
    06:00 +2°C° 0 mm 2 mps 766 mmHg 87%
    07:00 +2°C° 0 mm 2 mps 765 mmHg 86%
    08:00 +2°C° 0 mm 2 mps 765 mmHg 85%
    09:00 +3°C° 0 mm 2 mps 765 mmHg 79%
    10:00 +5°C° 0 mm 2 mps 765 mmHg 73%
    11:00 +6°C° 0 mm 2 mps 765 mmHg 66%
    12:00 +6°C° 0 mm 2 mps 765 mmHg 67%
    13:00 +7°C° 0 mm 2 mps 765 mmHg 67%
    14:00 +8°C° 0 mm 1 mps 764 mmHg 67%
    15:00 +6°C° 0 mm 2 mps 764 mmHg 74%
    16:00 +5°C° 0 mm 2 mps 765 mmHg 80%
    17:00 +4°C° 0 mm 2 mps 765 mmHg 86%
    18:00 +4°C° 0.1 mm 2 mps 765 mmHg 88%
    19:00 +3°C° 0.1 mm 3 mps 765 mmHg 89%
    20:00 +2°C° 0.1 mm 3 mps 765 mmHg 91%
    21:00 +2°C° 0 mm 3 mps 765 mmHg 91%
    22:00 +2°C° 0 mm 3 mps 765 mmHg 92%
    23:00 +1°C° 0 mm 3 mps 765 mmHg 92%
    Show more